Location: Unspecified
(0.0000°N, 0.0000°E)
Time: 04:37:59
(UTC+00:00)

A-11 Canister half - Pass Details

Date: 17 April 2026
Orbit: 1523 x 1685 km, 47.3° (Epoch: 13 May)

Event Time Altitude Azimuth Distance (km) Brightness Sun altitude
Rises 19:22:04 0° 192° (SSW) 4,719 11.6 -20.3°
Reaches altitude 10° 19:26:17 10° 176° (S) 3,759 10.9 -21.3°
Enters shadow 19:31:03 19° 146° (SE) 3,120 10.2 -22.5°
Maximum altitude 19:32:47 20° 132° (SE) 3,073 - -22.9°
Drops below altitude 10° 19:39:22 10° 89° (E) 3,843 - -24.5°
Sets 19:43:41 0° 73° (ENE) 4,856 - -25.6°
